Time,TemperatureF,DewpointF,PressureIn,WindDirection,WindDirectionDegrees,WindSpeedMPH,WindSpeedGustMPH,Humidity,HourlyPrecipIn,Conditions,Clouds,dailyrainin,SoftwareType,DateUTC
2013-02-17 00:00:00,34.0,33.0,26.85,WSW,247,0.0,4.0,95,0.06,,,0.00,Rainwise IP-100,2013-02-17 07:00:00,
2013-02-17 00:05:00,34.0,33.0,26.85,WSW,247,0.0,0.0,95,0.06,,,0.00,Rainwise IP-100,2013-02-17 07:05:00,
2013-02-17 00:10:00,34.0,33.0,26.85,WNW,292,3.0,5.0,94,0.00,,,0.00,Rainwise IP-100,2013-02-17 07:10:00,
2013-02-17 00:15:00,33.0,32.0,26.86,West,270,3.0,11.0,97,0.00,,,0.01,Rainwise IP-100,2013-02-17 07:15:00,
2013-02-17 00:20:00,33.0,33.0,26.86,North,360,7.0,10.0,98,0.06,,,0.01,Rainwise IP-100,2013-02-17 07:20:00,
2013-02-17 00:25:00,33.0,33.0,26.86,NNW,337,6.0,15.0,99,0.06,,,0.01,Rainwise IP-100,2013-02-17 07:25:00,
2013-02-17 00:30:00,33.0,33.0,26.86,NNW,337,9.0,17.0,100,0.00,,,0.01,Rainwise IP-100,2013-02-17 07:30:00,
2013-02-17 00:35:00,32.0,32.0,26.87,NNW,337,6.0,16.0,100,0.00,,,0.01,Rainwise IP-100,2013-02-17 07:35:00,
2013-02-17 00:38:00,32.0,32.0,26.87,NNW,337,6.0,15.0,100,0.00,,,0.01,Rainwise IP-100,2013-02-17 07:38:00,
2013-02-17 00:43:00,32.0,32.0,26.87,NW,315,8.0,16.0,100,0.00,,,0.01,Rainwise IP-100,2013-02-17 07:43:00,
2013-02-17 00:48:00,32.0,32.0,26.87,NNW,337,7.0,10.0,100,0.00,,,0.01,Rainwise IP-100,2013-02-17 07:48:00,
2013-02-17 00:53:00,32.0,32.0,26.87,NNW,337,6.0,8.0,100,0.00,,,0.01,Rainwise IP-100,2013-02-17 07:53:00,
2013-02-17 00:58:00,32.0,32.0,26.87,NNE,22,0.0,7.0,100,0.00,,,0.01,Rainwise IP-100,2013-02-17 07:58:00,
2013-02-17 01:03:00,32.0,32.0,26.87,North,360,2.0,6.0,100,0.00,,,0.01,Rainwise IP-100,2013-02-17 08:03:00,
2013-02-17 01:07:00,32.0,32.0,26.87,North,360,0.0,6.0,100,0.00,,,0.01,Rainwise IP-100,2013-02-17 08:07:00,
2013-02-17 01:12:00,32.0,32.0,26.87,SSW,202,3.0,5.0,100,0.00,,,0.01,Rainwise IP-100,2013-02-17 08:12:00,
2013-02-17 01:17:00,32.0,32.0,26.87,South,180,5.0,6.0,100,0.00,,,0.01,Rainwise IP-100,2013-02-17 08:17:00,
2013-02-17 01:22:00,32.0,32.0,26.87,SSE,157,7.0,8.0,100,0.00,,,0.01,Rainwise IP-100,2013-02-17 08:22:00,
2013-02-17 01:27:00,32.0,32.0,26.87,SSE,157,6.0,10.0,100,0.00,,,0.01,Rainwise IP-100,2013-02-17 08:27:00,
2013-02-17 01:32:00,32.0,32.0,26.87,South,180,6.0,10.0,100,0.00,,,0.01,Rainwise IP-100,2013-02-17 08:32:00,
2013-02-17 01:37:00,32.0,32.0,26.87,SSE,157,2.0,7.0,100,0.00,,,0.01,Rainwise IP-100,2013-02-17 08:37:00,
2013-02-17 01:42:00,32.0,32.0,26.87,SSE,157,0.0,6.0,100,0.00,,,0.01,Rainwise IP-100,2013-02-17 08:42:00,
2013-02-17 01:47:00,32.0,32.0,26.87,North,360,2.0,4.0,100,0.00,,,0.01,Rainwise IP-100,2013-02-17 08:47:00,
2013-02-17 01:52:00,32.0,32.0,26.87,South,180,4.0,4.0,100,0.00,,,0.01,Rainwise IP-100,2013-02-17 08:52:00,
2013-02-17 01:57:00,32.0,32.0,26.87,South,180,4.0,6.0,100,0.00,,,0.01,Rainwise IP-100,2013-02-17 08:57:00,
2013-02-17 02:02:00,32.0,32.0,26.87,ESE,112,7.0,7.0,100,0.00,,,0.01,Rainwise IP-100,2013-02-17 09:02:00,
2013-02-17 02:07:00,32.0,32.0,26.87,SSE,157,1.0,9.0,100,0.00,,,0.01,Rainwise IP-100,2013-02-17 09:07:00,
2013-02-17 02:12:00,32.0,32.0,26.87,SSE,157,1.0,4.0,100,0.00,,,0.01,Rainwise IP-100,2013-02-17 09:12:00,
2013-02-17 02:17:00,32.0,32.0,26.87,SSE,157,0.0,3.0,100,0.00,,,0.01,Rainwise IP-100,2013-02-17 09:17:00,
2013-02-17 02:22:00,32.0,32.0,26.87,WNW,292,0.0,4.0,100,0.00,,,0.01,Rainwise IP-100,2013-02-17 09:22:00,
2013-02-17 02:27:00,32.0,32.0,26.87,North,360,1.0,4.0,100,0.00,,,0.01,Rainwise IP-100,2013-02-17 09:27:00,
2013-02-17 02:32:00,32.0,32.0,26.87,WSW,247,1.0,6.0,100,0.00,,,0.01,Rainwise IP-100,2013-02-17 09:32:00,
2013-02-17 02:37:00,32.0,32.0,26.87,WSW,247,0.0,5.0,100,0.00,,,0.01,Rainwise IP-100,2013-02-17 09:37:00,
2013-02-17 02:42:00,32.0,32.0,26.87,North,360,0.0,6.0,100,0.00,,,0.01,Rainwise IP-100,2013-02-17 09:42:00,
2013-02-17 02:47:00,32.0,32.0,26.87,North,360,0.0,1.0,100,0.00,,,0.01,Rainwise IP-100,2013-02-17 09:47:00,
2013-02-17 02:52:00,32.0,32.0,26.87,North,360,0.0,1.0,100,0.00,,,0.01,Rainwise IP-100,2013-02-17 09:52:00,
2013-02-17 02:54:00,32.0,32.0,26.87,North,360,0.0,1.0,100,0.00,,,0.01,Rainwise IP-100,2013-02-17 09:54:00,
2013-02-17 02:59:00,32.0,32.0,26.87,North,360,0.0,0.0,100,0.00,,,0.01,Rainwise IP-100,2013-02-17 09:59:00,
2013-02-17 03:04:00,32.0,32.0,26.87,South,180,0.0,2.0,100,0.00,,,0.01,Rainwise IP-100,2013-02-17 10:04:00,
2013-02-17 03:09:00,32.0,32.0,26.87,SSE,157,1.0,3.0,100,0.00,,,0.01,Rainwise IP-100,2013-02-17 10:09:00,
2013-02-17 03:14:00,32.0,32.0,26.87,South,180,4.0,5.0,100,0.00,,,0.01,Rainwise IP-100,2013-02-17 10:14:00,
2013-02-17 03:19:00,32.0,31.0,26.87,SSE,157,5.0,9.0,97,0.00,,,0.01,Rainwise IP-100,2013-02-17 10:19:00,
2013-02-17 03:24:00,33.0,31.0,26.86,South,180,2.0,6.0,92,0.00,,,0.01,Rainwise IP-100,2013-02-17 10:24:00,
2013-02-17 03:29:00,33.0,31.0,26.86,SSE,157,4.0,6.0,91,0.00,,,0.01,Rainwise IP-100,2013-02-17 10:29:00,
2013-02-17 03:34:00,33.0,31.0,26.86,South,180,3.0,7.0,87,0.00,,,0.01,Rainwise IP-100,2013-02-17 10:34:00,
2013-02-17 03:39:00,33.0,31.0,26.86,South,180,2.0,7.0,88,0.00,,,0.01,Rainwise IP-100,2013-02-17 10:39:00,
2013-02-17 03:44:00,33.0,31.0,26.86,SW,225,2.0,4.0,89,0.00,,,0.01,Rainwise IP-100,2013-02-17 10:44:00,
2013-02-17 03:49:00,32.0,29.0,26.86,SSW,202,1.0,3.0,90,0.00,,,0.01,Rainwise IP-100,2013-02-17 10:49:00,
2013-02-17 03:54:00,32.0,29.0,26.86,SSW,202,4.0,4.0,90,0.00,,,0.01,Rainwise IP-100,2013-02-17 10:54:00,
2013-02-17 03:59:00,32.0,29.0,26.86,SW,225,1.0,5.0,90,0.00,,,0.01,Rainwise IP-100,2013-02-17 10:59:00,
2013-02-17 04:04:00,32.0,29.0,26.86,South,180,1.0,5.0,88,0.00,,,0.01,Rainwise IP-100,2013-02-17 11:04:00,
2013-02-17 04:09:00,33.0,31.0,26.86,WSW,247,2.0,5.0,87,0.00,,,0.01,Rainwise IP-100,2013-02-17 11:09:00,
2013-02-17 04:14:00,33.0,29.0,26.85,SW,225,5.0,7.0,84,0.00,,,0.01,Rainwise IP-100,2013-02-17 11:14:00,
2013-02-17 04:19:00,33.0,29.0,26.85,SSW,202,4.0,7.0,84,0.00,,,0.01,Rainwise IP-100,2013-02-17 11:19:00,
2013-02-17 04:24:00,33.0,29.0,26.86,WSW,247,0.0,6.0,84,0.00,,,0.01,Rainwise IP-100,2013-02-17 11:24:00,
2013-02-17 04:29:00,33.0,29.0,26.86,WSW,247,0.0,6.0,83,0.00,,,0.01,Rainwise IP-100,2013-02-17 11:29:00,
2013-02-17 04:34:00,33.0,29.0,26.86,WSW,247,0.0,3.0,84,0.00,,,0.01,Rainwise IP-100,2013-02-17 11:34:00,
2013-02-17 04:39:00,33.0,29.0,26.86,WSW,247,0.0,3.0,85,0.00,,,0.01,Rainwise IP-100,2013-02-17 11:39:00,
2013-02-17 04:44:00,33.0,29.0,26.86,WSW,247,1.0,3.0,86,0.00,,,0.01,Rainwise IP-100,2013-02-17 11:44:00,
2013-02-17 04:49:00,32.0,29.0,26.86,NW,315,1.0,5.0,88,0.00,,,0.01,Rainwise IP-100,2013-02-17 11:49:00,
2013-02-17 04:54:00,32.0,29.0,26.87,WNW,292,2.0,3.0,90,0.00,,,0.01,Rainwise IP-100,2013-02-17 11:54:00,
2013-02-17 04:59:00,32.0,29.0,26.87,North,360,2.0,5.0,91,0.00,,,0.01,Rainwise IP-100,2013-02-17 11:59:00,
2013-02-17 05:04:00,32.0,29.0,26.87,North,360,1.0,3.0,91,0.00,,,0.01,Rainwise IP-100,2013-02-17 12:04:00,
2013-02-17 05:09:00,32.0,31.0,26.87,North,360,0.0,2.0,92,0.00,,,0.01,Rainwise IP-100,2013-02-17 12:09:00,
2013-02-17 05:14:00,32.0,31.0,26.88,North,360,0.0,0.0,92,0.00,,,0.01,Rainwise IP-100,2013-02-17 12:14:00,
2013-02-17 05:19:00,32.0,31.0,26.88,North,360,0.0,0.0,93,0.00,,,0.01,Rainwise IP-100,2013-02-17 12:19:00,
2013-02-17 05:24:00,32.0,31.0,26.87,North,360,0.0,0.0,94,0.00,,,0.01,Rainwise IP-100,2013-02-17 12:24:00,
2013-02-17 05:29:00,31.0,29.0,26.87,North,360,0.0,0.0,95,0.00,,,0.01,Rainwise IP-100,2013-02-17 12:29:00,
2013-02-17 05:34:00,31.0,29.0,26.88,North,360,0.0,0.0,96,0.00,,,0.01,Rainwise IP-100,2013-02-17 12:34:00,
2013-02-17 05:39:00,31.0,29.0,26.88,NNW,337,0.0,5.0,96,0.00,,,0.01,Rainwise IP-100,2013-02-17 12:39:00,
2013-02-17 05:44:00,31.0,29.0,26.89,NNW,337,0.0,1.0,96,0.00,,,0.01,Rainwise IP-100,2013-02-17 12:44:00,
2013-02-17 05:49:00,31.0,29.0,26.89,SSW,202,2.0,3.0,96,0.00,,,0.01,Rainwise IP-100,2013-02-17 12:49:00,
2013-02-17 05:54:00,31.0,29.0,26.89,South,180,2.0,4.0,97,0.00,,,0.01,Rainwise IP-100,2013-02-17 12:54:00,
2013-02-17 05:59:00,31.0,29.0,26.89,WSW,247,0.0,4.0,97,0.00,,,0.01,Rainwise IP-100,2013-02-17 12:59:00,
2013-02-17 06:04:00,31.0,29.0,26.89,NW,315,1.0,5.0,97,0.00,,,0.01,Rainwise IP-100,2013-02-17 13:04:00,
2013-02-17 06:09:00,31.0,29.0,26.89,NW,315,0.0,2.0,97,0.00,,,0.01,Rainwise IP-100,2013-02-17 13:09:00,
2013-02-17 06:14:00,31.0,31.0,26.89,NW,315,0.0,0.0,98,0.00,,,0.01,Rainwise IP-100,2013-02-17 13:14:00,
2013-02-17 06:19:00,31.0,31.0,26.89,NW,315,0.0,0.0,98,0.00,,,0.01,Rainwise IP-100,2013-02-17 13:19:00,
2013-02-17 06:24:00,31.0,31.0,26.89,NW,315,0.0,0.0,98,0.00,,,0.01,Rainwise IP-100,2013-02-17 13:24:00,
2013-02-17 06:29:00,31.0,31.0,26.89,NW,315,0.0,0.0,98,0.00,,,0.01,Rainwise IP-100,2013-02-17 13:29:00,
2013-02-17 06:34:00,31.0,31.0,26.88,WNW,292,0.0,1.0,99,0.00,,,0.01,Rainwise IP-100,2013-02-17 13:34:00,
2013-02-17 06:39:00,31.0,31.0,26.88,SW,225,0.0,3.0,99,0.00,,,0.01,Rainwise IP-100,2013-02-17 13:39:00,
2013-02-17 06:44:00,31.0,31.0,26.88,SW,225,0.0,4.0,98,0.00,,,0.01,Rainwise IP-100,2013-02-17 13:44:00,
2013-02-17 06:49:00,30.0,31.0,26.88,West,270,0.0,4.0,99,0.00,,,0.01,Rainwise IP-100,2013-02-17 13:49:00,
2013-02-17 06:54:00,30.0,31.0,26.89,West,270,0.0,1.0,98,0.00,,,0.01,Rainwise IP-100,2013-02-17 13:54:00,
2013-02-17 06:59:00,30.0,31.0,26.89,West,270,0.0,0.0,99,0.00,,,0.01,Rainwise IP-100,2013-02-17 13:59:00,
2013-02-17 07:04:00,30.0,31.0,26.90,West,270,2.0,2.0,99,0.00,,,0.01,Rainwise IP-100,2013-02-17 14:04:00,
2013-02-17 07:09:00,30.0,31.0,26.90,West,270,2.0,5.0,100,0.00,,,0.01,Rainwise IP-100,2013-02-17 14:09:00,
2013-02-17 07:14:00,30.0,31.0,26.90,WNW,292,2.0,6.0,100,0.00,,,0.01,Rainwise IP-100,2013-02-17 14:14:00,
2013-02-17 07:19:00,30.0,31.0,26.90,WNW,292,2.0,3.0,100,0.00,,,0.01,Rainwise IP-100,2013-02-17 14:19:00,
2013-02-17 07:24:00,30.0,31.0,26.90,WNW,292,0.0,5.0,100,0.00,,,0.01,Rainwise IP-100,2013-02-17 14:24:00,
2013-02-17 07:29:00,30.0,31.0,26.90,SW,225,0.0,2.0,100,0.00,,,0.01,Rainwise IP-100,2013-02-17 14:29:00,
2013-02-17 07:34:00,30.0,31.0,26.90,SW,225,0.0,2.0,100,0.00,,,0.01,Rainwise IP-100,2013-02-17 14:34:00,
2013-02-17 07:39:00,30.0,31.0,26.90,West,270,2.0,4.0,100,0.00,,,0.01,Rainwise IP-100,2013-02-17 14:39:00,
2013-02-17 07:44:00,30.0,31.0,26.90,WNW,292,3.0,5.0,100,0.00,,,0.01,Rainwise IP-100,2013-02-17 14:44:00,
2013-02-17 07:49:00,30.0,31.0,26.90,WNW,292,0.0,5.0,100,0.00,,,0.01,Rainwise IP-100,2013-02-17 14:49:00,
2013-02-17 07:54:00,30.0,31.0,26.91,South,180,3.0,4.0,100,0.00,,,0.01,Rainwise IP-100,2013-02-17 14:54:00,
2013-02-17 07:59:00,30.0,31.0,26.91,South,180,1.0,5.0,100,0.00,,,0.01,Rainwise IP-100,2013-02-17 14:59:00,
2013-02-17 08:04:00,30.0,31.0,26.91,South,180,4.0,6.0,100,0.00,,,0.01,Rainwise IP-100,2013-02-17 15:04:00,
2013-02-17 08:09:00,30.0,31.0,26.91,SSW,202,4.0,6.0,100,0.00,,,0.01,Rainwise IP-100,2013-02-17 15:09:00,
2013-02-17 08:14:00,31.0,31.0,26.91,South,180,6.0,9.0,99,0.00,,,0.01,Rainwise IP-100,2013-02-17 15:14:00,
2013-02-17 08:19:00,31.0,31.0,26.91,South,180,5.0,8.0,99,0.00,,,0.01,Rainwise IP-100,2013-02-17 15:19:00,
2013-02-17 08:24:00,31.0,31.0,26.91,SSW,202,2.0,6.0,99,0.00,,,0.01,Rainwise IP-100,2013-02-17 15:24:00,
2013-02-17 08:29:00,31.0,31.0,26.91,SSE,157,2.0,6.0,99,0.00,,,0.01,Rainwise IP-100,2013-02-17 15:29:00,
2013-02-17 08:34:00,31.0,31.0,26.91,SSE,157,2.0,4.0,98,0.00,,,0.01,Rainwise IP-100,2013-02-17 15:34:00,
2013-02-17 08:39:00,31.0,31.0,26.91,SSE,157,1.0,5.0,98,0.00,,,0.01,Rainwise IP-100,2013-02-17 15:39:00,
2013-02-17 08:44:00,31.0,31.0,26.91,SSE,157,1.0,4.0,98,0.00,,,0.01,Rainwise IP-100,2013-02-17 15:44:00,
2013-02-17 08:49:00,31.0,31.0,26.91,SSE,157,0.0,3.0,98,0.00,,,0.01,Rainwise IP-100,2013-02-17 15:49:00,
2013-02-17 08:54:00,31.0,31.0,26.91,SSE,157,2.0,4.0,98,0.00,,,0.01,Rainwise IP-100,2013-02-17 15:54:00,
2013-02-17 08:59:00,31.0,31.0,26.91,SSE,157,0.0,2.0,98,0.00,,,0.01,Rainwise IP-100,2013-02-17 15:59:00,
2013-02-17 09:04:00,31.0,31.0,26.92,SSE,157,0.0,0.0,98,0.00,,,0.01,Rainwise IP-100,2013-02-17 16:04:00,
2013-02-17 09:09:00,31.0,29.0,26.92,SSE,157,0.0,1.0,97,0.00,,,0.01,Rainwise IP-100,2013-02-17 16:09:00,
2013-02-17 09:14:00,32.0,31.0,26.91,SSE,157,0.0,2.0,96,0.00,,,0.01,Rainwise IP-100,2013-02-17 16:14:00,
2013-02-17 09:19:00,32.0,31.0,26.91,SSE,157,0.0,0.0,96,0.00,,,0.01,Rainwise IP-100,2013-02-17 16:19:00,
2013-02-17 09:24:00,32.0,31.0,26.92,SSE,157,0.0,0.0,96,0.00,,,0.01,Rainwise IP-100,2013-02-17 16:24:00,
2013-02-17 09:29:00,32.0,31.0,26.92,NE,45,2.0,2.0,96,0.00,,,0.01,Rainwise IP-100,2013-02-17 16:29:00,
2013-02-17 09:34:00,32.0,31.0,26.92,NE,45,3.0,4.0,96,0.00,,,0.01,Rainwise IP-100,2013-02-17 16:34:00,
2013-02-17 09:39:00,32.0,31.0,26.92,NE,45,3.0,4.0,95,0.00,,,0.01,Rainwise IP-100,2013-02-17 16:39:00,
2013-02-17 09:44:00,32.0,31.0,26.92,North,360,4.0,4.0,95,0.00,,,0.01,Rainwise IP-100,2013-02-17 16:44:00,
2013-02-17 09:49:00,32.0,31.0,26.92,North,360,0.0,4.0,95,0.00,,,0.01,Rainwise IP-100,2013-02-17 16:49:00,
2013-02-17 09:54:00,32.0,31.0,26.93,North,360,0.0,0.0,94,0.00,,,0.01,Rainwise IP-100,2013-02-17 16:54:00,
2013-02-17 09:59:00,32.0,31.0,26.93,SW,225,0.0,3.0,94,0.00,,,0.01,Rainwise IP-100,2013-02-17 16:59:00,
2013-02-17 10:04:00,32.0,31.0,26.93,SW,225,0.0,0.0,94,0.00,,,0.01,Rainwise IP-100,2013-02-17 17:04:00,
2013-02-17 10:09:00,32.0,31.0,26.93,SW,225,0.0,0.0,94,0.00,,,0.01,Rainwise IP-100,2013-02-17 17:09:00,
2013-02-17 10:14:00,32.0,31.0,26.92,SW,225,0.0,0.0,93,0.00,,,0.01,Rainwise IP-100,2013-02-17 17:14:00,
2013-02-17 10:19:00,33.0,32.0,26.92,SW,225,0.0,0.0,93,0.00,,,0.01,Rainwise IP-100,2013-02-17 17:19:00,
2013-02-17 10:24:00,33.0,31.0,26.92,SW,225,0.0,0.0,91,0.00,,,0.01,Rainwise IP-100,2013-02-17 17:24:00,
2013-02-17 10:29:00,33.0,31.0,26.92,SW,225,0.0,0.0,92,0.00,,,0.01,Rainwise IP-100,2013-02-17 17:29:00,
2013-02-17 10:34:00,33.0,31.0,26.92,SW,225,0.0,0.0,91,0.00,,,0.01,Rainwise IP-100,2013-02-17 17:34:00,
2013-02-17 10:39:00,33.0,31.0,26.92,SW,225,0.0,0.0,91,0.06,,,0.02,Rainwise IP-100,2013-02-17 17:39:00,
2013-02-17 10:44:00,33.0,31.0,26.93,SW,225,0.0,0.0,90,0.06,,,0.02,Rainwise IP-100,2013-02-17 17:44:00,
2013-02-17 10:49:00,33.0,31.0,26.93,SW,225,0.0,0.0,89,0.00,,,0.02,Rainwise IP-100,2013-02-17 17:49:00,
2013-02-17 10:54:00,33.0,31.0,26.93,SW,225,0.0,0.0,89,0.00,,,0.02,Rainwise IP-100,2013-02-17 17:54:00,
2013-02-17 10:59:00,33.0,31.0,26.93,SW,225,0.0,0.0,89,0.00,,,0.02,Rainwise IP-100,2013-02-17 17:59:00,
2013-02-17 11:04:00,33.0,31.0,26.92,SW,225,0.0,0.0,88,0.06,,,0.03,Rainwise IP-100,2013-02-17 18:04:00,
2013-02-17 11:09:00,34.0,31.0,26.92,SW,225,0.0,0.0,86,0.06,,,0.03,Rainwise IP-100,2013-02-17 18:09:00,
2013-02-17 11:14:00,34.0,31.0,26.93,SW,225,0.0,0.0,86,0.00,,,0.03,Rainwise IP-100,2013-02-17 18:14:00,
2013-02-17 11:19:00,34.0,31.0,26.93,SW,225,0.0,0.0,87,0.00,,,0.03,Rainwise IP-100,2013-02-17 18:19:00,
2013-02-17 11:24:00,34.0,32.0,26.93,SW,225,0.0,0.0,88,0.00,,,0.03,Rainwise IP-100,2013-02-17 18:24:00,
2013-02-17 11:29:00,34.0,32.0,26.93,SW,225,0.0,0.0,88,0.06,,,0.04,Rainwise IP-100,2013-02-17 18:29:00,
2013-02-17 11:34:00,35.0,31.0,26.92,SW,225,0.0,0.0,83,0.06,,,0.04,Rainwise IP-100,2013-02-17 18:34:00,
2013-02-17 11:39:00,35.0,31.0,26.92,North,360,1.0,2.0,83,0.06,,,0.05,Rainwise IP-100,2013-02-17 18:39:00,
2013-02-17 11:44:00,35.0,31.0,26.92,North,360,0.0,2.0,84,0.06,,,0.05,Rainwise IP-100,2013-02-17 18:44:00,
2013-02-17 11:49:00,35.0,29.0,26.92,ESE,112,1.0,5.0,81,0.00,,,0.05,Rainwise IP-100,2013-02-17 18:49:00,
2013-02-17 11:54:00,35.0,29.0,26.93,ESE,112,1.0,3.0,81,0.00,,,0.05,Rainwise IP-100,2013-02-17 18:54:00,
2013-02-17 11:59:00,35.0,29.0,26.93,ESE,112,2.0,2.0,82,0.00,,,0.05,Rainwise IP-100,2013-02-17 18:59:00,
2013-02-17 12:04:00,35.0,29.0,26.93,East,90,1.0,3.0,82,0.00,,,0.05,Rainwise IP-100,2013-02-17 19:04:00,
2013-02-17 12:09:00,35.0,29.0,26.93,East,90,2.0,4.0,82,0.00,,,0.05,Rainwise IP-100,2013-02-17 19:09:00,
2013-02-17 12:14:00,35.0,29.0,26.93,East,90,0.0,2.0,81,0.06,,,0.06,Rainwise IP-100,2013-02-17 19:14:00,
2013-02-17 12:19:00,35.0,29.0,26.93,ESE,112,2.0,4.0,81,0.06,,,0.06,Rainwise IP-100,2013-02-17 19:19:00,
2013-02-17 12:24:00,35.0,29.0,26.92,ESE,112,2.0,3.0,80,0.00,,,0.06,Rainwise IP-100,2013-02-17 19:24:00,
2013-02-17 12:29:00,36.0,31.0,26.92,ESE,112,1.0,4.0,81,0.00,,,0.06,Rainwise IP-100,2013-02-17 19:29:00,
2013-02-17 12:34:00,36.0,31.0,26.93,SE,135,4.0,4.0,79,0.00,,,0.06,Rainwise IP-100,2013-02-17 19:34:00,
2013-02-17 12:39:00,36.0,29.0,26.93,ESE,112,2.0,4.0,77,0.00,,,0.06,Rainwise IP-100,2013-02-17 19:39:00,
2013-02-17 12:44:00,36.0,31.0,26.92,ESE,112,1.0,4.0,79,0.00,,,0.06,Rainwise IP-100,2013-02-17 19:44:00,
2013-02-17 12:49:00,36.0,29.0,26.92,ENE,67,0.0,6.0,78,0.00,,,0.06,Rainwise IP-100,2013-02-17 19:49:00,
2013-02-17 12:54:00,36.0,31.0,26.92,NNW,337,2.0,6.0,80,0.00,,,0.06,Rainwise IP-100,2013-02-17 19:54:00,
2013-02-17 12:59:00,36.0,29.0,26.92,NNE,22,4.0,6.0,78,0.00,,,0.06,Rainwise IP-100,2013-02-17 19:59:00,
2013-02-17 13:04:00,36.0,31.0,26.92,NW,315,3.0,6.0,79,0.00,,,0.06,Rainwise IP-100,2013-02-17 20:04:00,
2013-02-17 13:09:00,36.0,31.0,26.92,North,360,3.0,3.0,81,0.00,,,0.06,Rainwise IP-100,2013-02-17 20:09:00,
2013-02-17 13:14:00,36.0,31.0,26.92,ENE,67,1.0,6.0,79,0.00,,,0.06,Rainwise IP-100,2013-02-17 20:14:00,
2013-02-17 13:19:00,36.0,31.0,26.92,NNE,22,1.0,4.0,79,0.00,,,0.06,Rainwise IP-100,2013-02-17 20:19:00,
2013-02-17 13:24:00,36.0,31.0,26.92,NNE,22,4.0,5.0,80,0.00,,,0.06,Rainwise IP-100,2013-02-17 20:24:00,
2013-02-17 13:29:00,36.0,31.0,26.92,North,360,1.0,6.0,80,0.00,,,0.06,Rainwise IP-100,2013-02-17 20:29:00,
2013-02-17 13:34:00,36.0,31.0,26.92,ESE,112,0.0,4.0,80,0.00,,,0.06,Rainwise IP-100,2013-02-17 20:34:00,
2013-02-17 13:39:00,36.0,31.0,26.92,WSW,247,2.0,3.0,81,0.00,,,0.06,Rainwise IP-100,2013-02-17 20:39:00,
2013-02-17 13:44:00,36.0,31.0,26.92,WNW,292,5.0,9.0,81,0.00,,,0.06,Rainwise IP-100,2013-02-17 20:44:00,
2013-02-17 13:49:00,36.0,31.0,26.92,North,360,2.0,7.0,82,0.00,,,0.06,Rainwise IP-100,2013-02-17 20:49:00,
2013-02-17 13:54:00,35.0,29.0,26.93,WNW,292,4.0,7.0,82,0.00,,,0.06,Rainwise IP-100,2013-02-17 20:54:00,
2013-02-17 13:59:00,35.0,31.0,26.93,North,360,3.0,5.0,83,0.00,,,0.06,Rainwise IP-100,2013-02-17 20:59:00,
2013-02-17 14:04:00,35.0,31.0,26.93,NW,315,1.0,6.0,84,0.00,,,0.06,Rainwise IP-100,2013-02-17 21:04:00,
2013-02-17 14:09:00,35.0,31.0,26.93,WNW,292,2.0,6.0,84,0.00,,,0.06,Rainwise IP-100,2013-02-17 21:09:00,
2013-02-17 14:14:00,35.0,31.0,26.93,WNW,292,4.0,7.0,84,0.00,,,0.06,Rainwise IP-100,2013-02-17 21:14:00,
2013-02-17 14:19:00,35.0,31.0,26.93,ESE,112,0.0,6.0,84,0.00,,,0.06,Rainwise IP-100,2013-02-17 21:19:00,
2013-02-17 14:24:00,35.0,31.0,26.93,ENE,67,2.0,5.0,87,0.00,,,0.06,Rainwise IP-100,2013-02-17 21:24:00,
2013-02-17 14:29:00,35.0,31.0,26.93,ESE,112,1.0,6.0,87,0.00,,,0.06,Rainwise IP-100,2013-02-17 21:29:00,
2013-02-17 14:34:00,35.0,31.0,26.93,ENE,67,3.0,6.0,87,0.00,,,0.06,Rainwise IP-100,2013-02-17 21:34:00,
2013-02-17 14:39:00,35.0,31.0,26.93,ESE,112,1.0,4.0,87,0.00,,,0.06,Rainwise IP-100,2013-02-17 21:39:00,
2013-02-17 14:44:00,34.0,31.0,26.94,ESE,112,1.0,6.0,87,0.00,,,0.06,Rainwise IP-100,2013-02-17 21:44:00,
2013-02-17 14:49:00,34.0,31.0,26.94,ENE,67,3.0,5.0,87,0.00,,,0.06,Rainwise IP-100,2013-02-17 21:49:00,
2013-02-17 14:54:00,34.0,31.0,26.94,ENE,67,1.0,4.0,87,0.00,,,0.06,Rainwise IP-100,2013-02-17 21:54:00,
2013-02-17 14:59:00,34.0,31.0,26.94,ESE,112,0.0,2.0,87,0.00,,,0.06,Rainwise IP-100,2013-02-17 21:59:00,
2013-02-17 15:04:00,35.0,31.0,26.94,ESE,112,2.0,5.0,86,0.00,,,0.06,Rainwise IP-100,2013-02-17 22:04:00,
2013-02-17 15:09:00,35.0,32.0,26.94,SE,135,4.0,6.0,88,0.00,,,0.06,Rainwise IP-100,2013-02-17 22:09:00,
2013-02-17 15:14:00,35.0,31.0,26.94,SE,135,2.0,5.0,87,0.00,,,0.06,Rainwise IP-100,2013-02-17 22:14:00,
2013-02-17 15:19:00,35.0,31.0,26.94,SSE,157,2.0,5.0,86,0.06,,,0.07,Rainwise IP-100,2013-02-17 22:19:00,
2013-02-17 15:24:00,35.0,31.0,26.94,SSE,157,5.0,6.0,85,0.06,,,0.07,Rainwise IP-100,2013-02-17 22:24:00,
2013-02-17 15:29:00,35.0,31.0,26.94,WNW,292,4.0,8.0,86,0.00,,,0.07,Rainwise IP-100,2013-02-17 22:29:00,
2013-02-17 15:34:00,35.0,31.0,26.94,WNW,292,2.0,6.0,84,0.00,,,0.07,Rainwise IP-100,2013-02-17 22:34:00,
2013-02-17 15:39:00,35.0,29.0,26.94,WNW,292,1.0,6.0,82,0.00,,,0.07,Rainwise IP-100,2013-02-17 22:39:00,
2013-02-17 15:44:00,35.0,29.0,26.95,WSW,247,2.0,6.0,80,0.00,,,0.07,Rainwise IP-100,2013-02-17 22:44:00,
2013-02-17 15:49:00,35.0,29.0,26.95,WSW,247,3.0,7.0,80,0.00,,,0.07,Rainwise IP-100,2013-02-17 22:49:00,
2013-02-17 15:54:00,35.0,29.0,26.95,West,270,5.0,6.0,79,0.00,,,0.07,Rainwise IP-100,2013-02-17 22:54:00,
2013-02-17 15:59:00,35.0,29.0,26.95,WNW,292,0.0,6.0,81,0.00,,,0.07,Rainwise IP-100,2013-02-17 22:59:00,
2013-02-17 16:04:00,36.0,31.0,26.95,WNW,292,0.0,2.0,81,0.00,,,0.07,Rainwise IP-100,2013-02-17 23:04:00,
2013-02-17 16:09:00,36.0,31.0,26.95,North,360,1.0,4.0,81,0.00,,,0.07,Rainwise IP-100,2013-02-17 23:09:00,
2013-02-17 16:14:00,36.0,29.0,26.95,WNW,292,6.0,9.0,77,0.00,,,0.07,Rainwise IP-100,2013-02-17 23:14:00,
2013-02-17 16:19:00,35.0,28.0,26.95,WNW,292,5.0,7.0,75,0.00,,,0.07,Rainwise IP-100,2013-02-17 23:19:00,
2013-02-17 16:24:00,35.0,28.0,26.96,WSW,247,3.0,7.0,76,0.00,,,0.07,Rainwise IP-100,2013-02-17 23:24:00,
2013-02-17 16:29:00,35.0,28.0,26.96,SW,225,0.0,5.0,76,0.00,,,0.07,Rainwise IP-100,2013-02-17 23:29:00,
2013-02-17 16:34:00,36.0,29.0,26.96,WSW,247,2.0,4.0,77,0.00,,,0.07,Rainwise IP-100,2013-02-17 23:34:00,
2013-02-17 16:39:00,36.0,29.0,26.96,West,270,0.0,3.0,77,0.00,,,0.07,Rainwise IP-100,2013-02-17 23:39:00,
2013-02-17 16:44:00,36.0,29.0,26.96,NW,315,3.0,3.0,77,0.00,,,0.07,Rainwise IP-100,2013-02-17 23:44:00,
2013-02-17 16:49:00,36.0,29.0,26.96,NNW,337,1.0,4.0,78,0.00,,,0.07,Rainwise IP-100,2013-02-17 23:49:00,
2013-02-17 16:54:00,35.0,29.0,26.97,WSW,247,1.0,4.0,78,0.00,,,0.07,Rainwise IP-100,2013-02-17 23:54:00,
2013-02-17 16:59:00,35.0,28.0,26.97,NW,315,6.0,6.0,77,0.00,,,0.07,Rainwise IP-100,2013-02-17 23:59:00,
2013-02-17 17:04:00,35.0,28.0,26.97,WNW,292,5.0,10.0,76,0.00,,,0.07,Rainwise IP-100,2013-02-18 00:04:00,
2013-02-17 17:09:00,35.0,28.0,26.97,NNW,337,6.0,9.0,77,0.00,,,0.07,Rainwise IP-100,2013-02-18 00:09:00,
2013-02-17 17:14:00,34.0,29.0,26.98,WNW,292,4.0,7.0,79,0.00,,,0.07,Rainwise IP-100,2013-02-18 00:14:00,
2013-02-17 17:19:00,34.0,29.0,26.98,SW,225,3.0,6.0,80,0.00,,,0.07,Rainwise IP-100,2013-02-18 00:19:00,
2013-02-17 17:24:00,34.0,29.0,26.98,WSW,247,1.0,5.0,81,0.00,,,0.07,Rainwise IP-100,2013-02-18 00:24:00,
2013-02-17 17:29:00,34.0,29.0,26.98,WSW,247,4.0,4.0,82,0.00,,,0.07,Rainwise IP-100,2013-02-18 00:29:00,
2013-02-17 17:34:00,34.0,29.0,26.99,WNW,292,3.0,6.0,81,0.00,,,0.07,Rainwise IP-100,2013-02-18 00:34:00,
2013-02-17 17:39:00,34.0,29.0,26.99,WNW,292,5.0,7.0,80,0.00,,,0.07,Rainwise IP-100,2013-02-18 00:39:00,
2013-02-17 17:44:00,34.0,29.0,26.99,NW,315,3.0,7.0,79,0.00,,,0.07,Rainwise IP-100,2013-02-18 00:44:00,
2013-02-17 17:49:00,34.0,29.0,26.99,NW,315,6.0,7.0,82,0.00,,,0.07,Rainwise IP-100,2013-02-18 00:49:00,
2013-02-17 17:54:00,34.0,29.0,26.99,WNW,292,4.0,9.0,81,0.00,,,0.07,Rainwise IP-100,2013-02-18 00:54:00,
2013-02-17 17:59:00,34.0,29.0,26.99,WSW,247,2.0,6.0,81,0.00,,,0.07,Rainwise IP-100,2013-02-18 00:59:00,
2013-02-17 18:04:00,34.0,29.0,26.99,WSW,247,3.0,7.0,81,0.00,,,0.07,Rainwise IP-100,2013-02-18 01:04:00,
2013-02-17 18:09:00,33.0,29.0,26.99,South,180,2.0,4.0,83,0.00,,,0.07,Rainwise IP-100,2013-02-18 01:09:00,
2013-02-17 18:14:00,33.0,29.0,26.99,South,180,0.0,3.0,83,0.00,,,0.07,Rainwise IP-100,2013-02-18 01:14:00,
2013-02-17 18:19:00,33.0,29.0,26.99,NE,45,1.0,4.0,84,0.00,,,0.07,Rainwise IP-100,2013-02-18 01:19:00,
2013-02-17 18:24:00,33.0,29.0,26.99,NE,45,0.0,4.0,84,0.00,,,0.07,Rainwise IP-100,2013-02-18 01:24:00,
2013-02-17 18:29:00,33.0,29.0,26.99,East,90,0.0,0.0,86,0.00,,,0.07,Rainwise IP-100,2013-02-18 01:29:00,
2013-02-17 18:34:00,32.0,29.0,26.99,East,90,1.0,1.0,88,0.00,,,0.07,Rainwise IP-100,2013-02-18 01:34:00,
2013-02-17 18:39:00,32.0,29.0,26.99,ESE,112,4.0,4.0,88,0.00,,,0.07,Rainwise IP-100,2013-02-18 01:39:00,
2013-02-17 18:44:00,32.0,29.0,27.00,East,90,0.0,4.0,89,0.00,,,0.07,Rainwise IP-100,2013-02-18 01:44:00,
2013-02-17 18:49:00,32.0,29.0,27.00,East,90,0.0,1.0,88,0.00,,,0.07,Rainwise IP-100,2013-02-18 01:49:00,
2013-02-17 18:54:00,32.0,29.0,27.01,East,90,2.0,6.0,90,0.00,,,0.07,Rainwise IP-100,2013-02-18 01:54:00,
2013-02-17 18:59:00,32.0,29.0,27.01,ENE,67,2.0,5.0,90,0.00,,,0.07,Rainwise IP-100,2013-02-18 01:59:00,
2013-02-17 19:04:00,32.0,29.0,27.01,ENE,67,2.0,3.0,89,0.00,,,0.07,Rainwise IP-100,2013-02-18 02:04:00,
2013-02-17 19:09:00,32.0,29.0,27.01,ENE,67,0.0,3.0,88,0.00,,,0.07,Rainwise IP-100,2013-02-18 02:09:00,
2013-02-17 19:14:00,32.0,29.0,27.02,ENE,67,0.0,0.0,88,0.00,,,0.07,Rainwise IP-100,2013-02-18 02:14:00,
2013-02-17 19:19:00,31.0,28.0,27.02,ENE,67,2.0,0.0,90,0.00,,,0.07,Rainwise IP-100,2013-02-18 02:19:00,
2013-02-17 19:24:00,31.0,28.0,27.01,ENE,67,0.0,2.0,90,0.00,,,0.07,Rainwise IP-100,2013-02-18 02:24:00,
2013-02-17 19:29:00,31.0,28.0,27.01,ENE,67,0.0,0.0,90,0.00,,,0.07,Rainwise IP-100,2013-02-18 02:29:00,
2013-02-17 19:34:00,31.0,28.0,27.03,ENE,67,0.0,2.0,90,0.00,,,0.07,Rainwise IP-100,2013-02-18 02:34:00,
2013-02-17 19:39:00,31.0,28.0,27.03,ENE,67,0.0,3.0,90,0.00,,,0.07,Rainwise IP-100,2013-02-18 02:39:00,
2013-02-17 19:44:00,31.0,28.0,27.02,ENE,67,0.0,0.0,91,0.00,,,0.07,Rainwise IP-100,2013-02-18 02:44:00,
2013-02-17 19:49:00,31.0,29.0,27.02,ESE,112,2.0,3.0,92,0.00,,,0.07,Rainwise IP-100,2013-02-18 02:49:00,
2013-02-17 19:54:00,31.0,28.0,27.02,ESE,112,1.0,4.0,91,0.00,,,0.07,Rainwise IP-100,2013-02-18 02:54:00,
2013-02-17 19:59:00,31.0,28.0,27.02,ESE,112,0.0,3.0,90,0.00,,,0.07,Rainwise IP-100,2013-02-18 02:59:00,
2013-02-17 20:04:00,31.0,28.0,27.02,ESE,112,0.0,0.0,90,0.00,,,0.07,Rainwise IP-100,2013-02-18 03:04:00,
2013-02-17 20:09:00,31.0,28.0,27.02,ESE,112,0.0,0.0,90,0.00,,,0.07,Rainwise IP-100,2013-02-18 03:09:00,
2013-02-17 20:14:00,31.0,28.0,27.03,ESE,112,0.0,0.0,90,0.00,,,0.07,Rainwise IP-100,2013-02-18 03:14:00,
2013-02-17 20:19:00,31.0,28.0,27.03,ESE,112,0.0,0.0,91,0.00,,,0.07,Rainwise IP-100,2013-02-18 03:19:00,
2013-02-17 20:24:00,31.0,28.0,27.03,ESE,112,0.0,0.0,91,0.00,,,0.07,Rainwise IP-100,2013-02-18 03:24:00,
2013-02-17 20:29:00,31.0,29.0,27.03,ESE,112,0.0,0.0,93,0.00,,,0.07,Rainwise IP-100,2013-02-18 03:29:00,
2013-02-17 20:34:00,31.0,29.0,27.03,ESE,112,0.0,0.0,92,0.00,,,0.07,Rainwise IP-100,2013-02-18 03:34:00,
2013-02-17 20:39:00,31.0,29.0,27.03,ESE,112,0.0,0.0,93,0.00,,,0.07,Rainwise IP-100,2013-02-18 03:39:00,
2013-02-17 20:44:00,31.0,29.0,27.03,ESE,112,0.0,0.0,93,0.00,,,0.07,Rainwise IP-100,2013-02-18 03:44:00,
2013-02-17 20:49:00,31.0,29.0,27.03,ESE,112,0.0,0.0,94,0.00,,,0.07,Rainwise IP-100,2013-02-18 03:49:00,
2013-02-17 20:54:00,31.0,29.0,27.03,WNW,292,3.0,0.0,94,0.00,,,0.07,Rainwise IP-100,2013-02-18 03:54:00,
2013-02-17 20:59:00,31.0,29.0,27.03,WNW,292,0.0,4.0,94,0.00,,,0.07,Rainwise IP-100,2013-02-18 03:59:00,
2013-02-17 21:04:00,31.0,29.0,27.03,WNW,292,0.0,0.0,94,0.00,,,0.07,Rainwise IP-100,2013-02-18 04:04:00,
2013-02-17 21:09:00,31.0,29.0,27.03,WNW,292,0.0,0.0,94,0.00,,,0.07,Rainwise IP-100,2013-02-18 04:09:00,
2013-02-17 21:14:00,31.0,29.0,27.03,WNW,292,0.0,0.0,94,0.00,,,0.07,Rainwise IP-100,2013-02-18 04:14:00,
2013-02-17 21:19:00,31.0,29.0,27.03,WNW,292,0.0,0.0,94,0.00,,,0.07,Rainwise IP-100,2013-02-18 04:19:00,
2013-02-17 21:24:00,31.0,29.0,27.03,WNW,292,0.0,0.0,94,0.00,,,0.07,Rainwise IP-100,2013-02-18 04:24:00,
2013-02-17 21:29:00,31.0,29.0,27.03,WNW,292,0.0,0.0,94,0.00,,,0.07,Rainwise IP-100,2013-02-18 04:29:00,
2013-02-17 21:34:00,31.0,29.0,27.03,WNW,292,0.0,0.0,94,0.00,,,0.07,Rainwise IP-100,2013-02-18 04:34:00,
2013-02-17 21:39:00,31.0,29.0,27.03,WNW,292,0.0,0.0,94,0.00,,,0.07,Rainwise IP-100,2013-02-18 04:39:00,
2013-02-17 21:44:00,31.0,29.0,27.04,WNW,292,0.0,0.0,94,0.00,,,0.07,Rainwise IP-100,2013-02-18 04:44:00,
2013-02-17 21:49:00,31.0,29.0,27.04,WNW,292,0.0,0.0,94,0.00,,,0.07,Rainwise IP-100,2013-02-18 04:49:00,
2013-02-17 21:54:00,31.0,29.0,27.03,WNW,292,0.0,0.0,95,0.00,,,0.07,Rainwise IP-100,2013-02-18 04:54:00,
2013-02-17 21:59:00,31.0,29.0,27.03,WNW,292,0.0,0.0,95,0.00,,,0.07,Rainwise IP-100,2013-02-18 04:59:00,
2013-02-17 22:00:00,31.0,29.0,27.03,WNW,292,0.0,0.0,95,0.00,,,0.07,Rainwise IP-100,2013-02-18 05:00:00,
2013-02-17 22:05:00,31.0,29.0,27.04,WNW,292,0.0,0.0,95,0.00,,,0.07,Rainwise IP-100,2013-02-18 05:05:00,
2013-02-17 22:10:00,31.0,29.0,27.04,WNW,292,0.0,0.0,95,0.00,,,0.07,Rainwise IP-100,2013-02-18 05:10:00,
2013-02-17 22:15:00,31.0,29.0,27.04,WNW,292,0.0,0.0,95,0.00,,,0.07,Rainwise IP-100,2013-02-18 05:15:00,
2013-02-17 22:20:00,31.0,29.0,27.04,WNW,292,0.0,0.0,95,0.00,,,0.07,Rainwise IP-100,2013-02-18 05:20:00,
2013-02-17 22:25:00,31.0,29.0,27.04,WSW,247,2.0,7.0,93,0.00,,,0.07,Rainwise IP-100,2013-02-18 05:25:00,
2013-02-17 22:30:00,31.0,28.0,27.04,North,360,6.0,6.0,91,0.00,,,0.07,Rainwise IP-100,2013-02-18 05:30:00,
2013-02-17 22:35:00,32.0,29.0,27.04,North,360,4.0,6.0,88,0.00,,,0.07,Rainwise IP-100,2013-02-18 05:35:00,
2013-02-17 22:40:00,32.0,29.0,27.04,North,360,3.0,6.0,88,0.00,,,0.07,Rainwise IP-100,2013-02-18 05:40:00,
2013-02-17 22:45:00,32.0,29.0,27.04,North,360,1.0,6.0,87,0.00,,,0.07,Rainwise IP-100,2013-02-18 05:45:00,
2013-02-17 22:50:00,32.0,29.0,27.04,NNW,337,0.0,3.0,88,0.00,,,0.07,Rainwise IP-100,2013-02-18 05:50:00,
2013-02-17 22:55:00,31.0,28.0,27.04,North,360,1.0,4.0,90,0.00,,,0.07,Rainwise IP-100,2013-02-18 05:55:00,
2013-02-17 23:00:00,31.0,28.0,27.04,NE,45,2.0,3.0,90,0.00,,,0.07,Rainwise IP-100,2013-02-18 06:00:00,
2013-02-17 23:05:00,31.0,28.0,27.05,NE,45,0.0,3.0,91,0.00,,,0.07,Rainwise IP-100,2013-02-18 06:05:00,
2013-02-17 23:10:00,31.0,28.0,27.05,SE,135,0.0,1.0,91,0.00,,,0.07,Rainwise IP-100,2013-02-18 06:10:00,
2013-02-17 23:15:00,31.0,29.0,27.05,South,180,0.0,3.0,92,0.00,,,0.07,Rainwise IP-100,2013-02-18 06:15:00,
2013-02-17 23:20:00,30.0,29.0,27.05,South,180,0.0,0.0,93,0.00,,,0.07,Rainwise IP-100,2013-02-18 06:20:00,
2013-02-17 23:25:00,30.0,29.0,27.05,South,180,0.0,0.0,93,0.00,,,0.07,Rainwise IP-100,2013-02-18 06:25:00,
2013-02-17 23:30:00,30.0,29.0,27.05,South,180,0.0,0.0,93,0.00,,,0.07,Rainwise IP-100,2013-02-18 06:30:00,
2013-02-17 23:35:00,30.0,29.0,27.05,South,180,0.0,0.0,93,0.00,,,0.07,Rainwise IP-100,2013-02-18 06:35:00,
2013-02-17 23:40:00,30.0,29.0,27.05,South,180,0.0,0.0,94,0.00,,,0.07,Rainwise IP-100,2013-02-18 06:40:00,
2013-02-17 23:45:00,29.0,28.0,27.06,South,180,0.0,0.0,95,0.00,,,0.07,Rainwise IP-100,2013-02-18 06:45:00,
2013-02-17 23:50:00,30.0,29.0,27.06,South,180,0.0,0.0,96,0.00,,,0.07,Rainwise IP-100,2013-02-18 06:50:00,
2013-02-17 23:55:00,30.0,29.0,27.06,South,180,0.0,0.0,95,0.00,,,0.07,Rainwise IP-100,2013-02-18 06:55:00,